Time,TemperatureF,DewpointF,PressureIn,WindDirection,WindDirectionDegrees,WindSpeedMPH,WindSpeedGustMPH,Humidity,HourlyPrecipIn,Conditions,Clouds,dailyrainin,SoftwareType,DateUTC
2013-06-01 00:03:00,67.0,62.0,29.98,SW,214,6.0,9.0,85,0.00,,,0.01,,2013-06-01 04:03:00,
2013-06-01 00:12:00,67.0,63.0,29.98,SSW,208,6.0,12.0,86,0.00,,,0.00,,2013-06-01 04:12:00,
2013-06-01 00:23:00,67.0,63.0,29.98,SSW,208,6.0,12.0,86,0.00,,,0.00,,2013-06-01 04:23:00,
2013-06-01 00:33:00,67.0,63.0,29.98,SSW,208,6.0,12.0,86,0.00,,,0.00,,2013-06-01 04:33:00,
2013-06-01 00:42:00,67.0,63.0,29.98,SSW,208,6.0,12.0,86,0.00,,,0.00,,2013-06-01 04:42:00,
2013-06-01 00:53:00,67.0,63.0,29.98,SSW,208,6.0,12.0,86,0.00,,,0.00,,2013-06-01 04:53:00,
2013-06-01 01:02:00,66.0,62.0,29.98,SSW,210,4.0,7.0,87,0.00,,,0.00,,2013-06-01 05:02:00,
2013-06-01 01:12:00,66.0,62.0,29.98,SSW,210,4.0,7.0,87,0.00,,,0.00,,2013-06-01 05:12:00,
2013-06-01 01:22:00,66.0,62.0,29.98,SSW,212,7.0,11.0,88,0.00,,,0.00,,2013-06-01 05:22:00,
2013-06-01 01:32:00,66.0,62.0,29.98,SSW,212,7.0,11.0,88,0.00,,,0.00,,2013-06-01 05:32:00,
2013-06-01 01:42:00,65.0,62.0,29.98,SSW,208,6.0,13.0,89,0.00,,,0.00,,2013-06-01 05:42:00,
2013-06-01 01:52:00,65.0,62.0,29.98,SSW,208,6.0,13.0,89,0.00,,,0.00,,2013-06-01 05:52:00,
2013-06-01 02:01:00,65.0,62.0,29.98,SSW,208,6.0,13.0,89,0.00,,,0.00,,2013-06-01 06:01:00,
2013-06-01 02:12:00,65.0,62.0,29.98,SSW,208,6.0,13.0,89,0.00,,,0.00,,2013-06-01 06:12:00,
2013-06-01 02:22:00,65.0,62.0,29.98,SSW,208,6.0,13.0,89,0.00,,,0.00,,2013-06-01 06:22:00,
2013-06-01 02:32:00,64.0,61.0,29.97,SSW,213,7.0,14.0,90,0.00,,,0.00,,2013-06-01 06:32:00,
2013-06-01 02:42:00,64.0,61.0,29.97,SW,218,7.0,13.0,91,0.00,,,0.00,,2013-06-01 06:42:00,
2013-06-01 02:52:00,64.0,61.0,29.97,SW,218,7.0,13.0,91,0.00,,,0.00,,2013-06-01 06:52:00,
2013-06-01 03:01:00,64.0,61.0,29.97,SW,218,7.0,13.0,91,0.00,,,0.00,,2013-06-01 07:01:00,
2013-06-01 03:11:00,64.0,61.0,29.97,SW,218,7.0,13.0,91,0.00,,,0.00,,2013-06-01 07:11:00,
2013-06-01 03:22:00,64.0,61.0,29.96,SW,224,6.0,12.0,91,0.00,,,0.00,,2013-06-01 07:22:00,
2013-06-01 03:32:00,64.0,61.0,29.96,SW,224,6.0,12.0,91,0.00,,,0.00,,2013-06-01 07:32:00,
2013-06-01 03:42:00,64.0,61.0,29.97,SW,219,4.0,10.0,91,0.00,,,0.00,,2013-06-01 07:42:00,
2013-06-01 03:52:00,64.0,61.0,29.97,SW,219,4.0,10.0,91,0.00,,,0.00,,2013-06-01 07:52:00,
2013-06-01 04:02:00,64.0,61.0,29.97,SW,219,4.0,10.0,91,0.00,,,0.00,,2013-06-01 08:02:00,
2013-06-01 04:11:00,63.0,61.0,29.96,SSW,206,6.0,9.0,92,0.00,,,0.00,,2013-06-01 08:11:00,
2013-06-01 04:22:00,63.0,61.0,29.96,SSW,206,6.0,9.0,92,0.00,,,0.00,,2013-06-01 08:22:00,
2013-06-01 04:32:00,63.0,61.0,29.96,SW,215,6.0,10.0,92,0.00,,,0.00,,2013-06-01 08:32:00,
2013-06-01 04:42:00,63.0,61.0,29.96,SW,215,6.0,10.0,92,0.00,,,0.00,,2013-06-01 08:42:00,
2013-06-01 04:52:00,63.0,61.0,29.96,SW,215,6.0,10.0,92,0.00,,,0.00,,2013-06-01 08:52:00,
2013-06-01 05:01:00,63.0,61.0,29.97,SSW,200,4.0,8.0,93,0.00,,,0.00,,2013-06-01 09:01:00,
2013-06-01 05:12:00,63.0,61.0,29.97,SSW,200,4.0,8.0,93,0.00,,,0.00,,2013-06-01 09:12:00,
2013-06-01 05:22:00,63.0,61.0,29.97,SSW,200,4.0,8.0,93,0.00,,,0.00,,2013-06-01 09:22:00,
2013-06-01 05:33:00,62.0,60.0,29.97,SW,220,6.0,12.0,93,0.00,,,0.00,,2013-06-01 09:33:00,
2013-06-01 05:42:00,62.0,60.0,29.97,SW,220,6.0,12.0,93,0.00,,,0.00,,2013-06-01 09:42:00,
2013-06-01 05:53:00,62.0,60.0,29.97,SSW,211,7.0,12.0,94,0.00,,,0.00,,2013-06-01 09:53:00,
2013-06-01 06:02:00,62.0,60.0,29.97,SW,218,5.0,10.0,94,0.00,,,0.00,,2013-06-01 10:02:00,
2013-06-01 06:13:00,62.0,60.0,29.97,SW,218,5.0,10.0,94,0.00,,,0.00,,2013-06-01 10:13:00,
2013-06-01 06:22:00,63.0,61.0,29.98,SW,228,4.0,10.0,94,0.00,,,0.00,,2013-06-01 10:22:00,
2013-06-01 06:33:00,63.0,61.0,29.98,SW,232,4.0,13.0,93,0.00,,,0.00,,2013-06-01 10:33:00,
2013-06-01 06:42:00,63.0,61.0,29.98,SW,232,4.0,13.0,93,0.00,,,0.00,,2013-06-01 10:42:00,
2013-06-01 06:52:00,63.0,61.0,29.98,SW,232,4.0,13.0,93,0.00,,,0.00,,2013-06-01 10:52:00,
2013-06-01 07:02:00,66.0,63.0,29.98,SW,220,8.0,14.0,89,0.00,,,0.00,,2013-06-01 11:02:00,
2013-06-01 07:11:00,66.0,63.0,29.98,SW,220,8.0,14.0,89,0.00,,,0.00,,2013-06-01 11:11:00,
2013-06-01 07:22:00,66.0,62.0,29.98,SSW,212,7.0,13.0,87,0.00,,,0.00,,2013-06-01 11:22:00,
2013-06-01 07:33:00,66.0,62.0,29.98,SW,232,8.0,16.0,87,0.00,,,0.00,,2013-06-01 11:33:00,
2013-06-01 07:42:00,66.0,62.0,29.98,SW,232,8.0,16.0,87,0.00,,,0.00,,2013-06-01 11:42:00,
2013-06-01 07:52:00,67.0,63.0,29.98,SSW,204,6.0,16.0,86,0.00,,,0.00,,2013-06-01 11:52:00,
2013-06-01 08:01:00,68.0,64.0,29.98,SSW,213,6.0,14.0,86,0.00,,,0.00,,2013-06-01 12:01:00,
2013-06-01 08:12:00,68.0,64.0,29.98,SSW,213,6.0,14.0,86,0.00,,,0.00,,2013-06-01 12:12:00,
2013-06-01 08:22:00,69.0,65.0,29.97,SSW,210,8.0,15.0,86,0.00,,,0.00,,2013-06-01 12:22:00,
2013-06-01 08:32:00,69.0,65.0,29.97,SSW,210,8.0,15.0,86,0.00,,,0.00,,2013-06-01 12:32:00,
2013-06-01 08:42:00,71.0,65.0,29.98,SW,227,4.0,12.0,81,0.00,,,0.00,,2013-06-01 12:42:00,
2013-06-01 08:52:00,71.0,65.0,29.98,SW,227,4.0,12.0,81,0.00,,,0.00,,2013-06-01 12:52:00,
2013-06-01 09:01:00,71.0,64.0,29.99,SSW,202,5.0,10.0,79,0.00,,,0.00,,2013-06-01 13:01:00,
2013-06-01 09:12:00,71.0,64.0,29.99,SSW,202,5.0,10.0,79,0.00,,,0.00,,2013-06-01 13:12:00,
2013-06-01 09:22:00,73.0,65.0,29.98,SSW,198,7.0,12.0,77,0.00,,,0.00,,2013-06-01 13:22:00,
2013-06-01 09:32:00,73.0,65.0,29.98,SSW,211,8.0,12.0,76,0.00,,,0.00,,2013-06-01 13:32:00,
2013-06-01 09:42:00,74.0,66.0,29.98,SW,235,6.0,13.0,75,0.00,,,0.00,,2013-06-01 13:42:00,
2013-06-01 09:52:00,74.0,66.0,29.98,SW,235,6.0,13.0,75,0.00,,,0.00,,2013-06-01 13:52:00,
2013-06-01 10:02:00,74.0,66.0,29.98,SW,225,8.0,14.0,75,0.00,,,0.00,,2013-06-01 14:02:00,
2013-06-01 10:11:00,74.0,66.0,29.98,SW,225,8.0,14.0,75,0.00,,,0.00,,2013-06-01 14:11:00,
2013-06-01 10:21:00,74.0,66.0,29.98,SW,225,4.0,12.0,75,0.00,,,0.00,,2013-06-01 14:21:00,
2013-06-01 10:32:00,74.0,66.0,29.98,SW,225,4.0,12.0,75,0.00,,,0.00,,2013-06-01 14:32:00,
2013-06-01 10:42:00,74.0,66.0,29.98,SW,225,4.0,12.0,75,0.00,,,0.00,,2013-06-01 14:42:00,
2013-06-01 10:52:00,78.0,68.0,29.98,SSW,202,4.0,13.0,71,0.00,,,0.00,,2013-06-01 14:52:00,
2013-06-01 11:02:00,78.0,68.0,29.98,SSW,202,4.0,13.0,71,0.00,,,0.00,,2013-06-01 15:02:00,
2013-06-01 11:11:00,78.0,68.0,29.98,SSW,202,4.0,13.0,71,0.00,,,0.00,,2013-06-01 15:11:00,
2013-06-01 11:21:00,79.0,68.0,29.98,SW,214,7.0,12.0,68,0.00,,,0.00,,2013-06-01 15:21:00,
2013-06-01 11:33:00,79.0,68.0,29.98,SW,214,7.0,12.0,68,0.00,,,0.00,,2013-06-01 15:33:00,
2013-06-01 11:43:00,79.0,68.0,29.98,SW,214,7.0,12.0,68,0.00,,,0.00,,2013-06-01 15:43:00,
2013-06-01 11:54:00,79.0,68.0,29.98,SW,225,9.0,17.0,68,0.00,,,0.00,,2013-06-01 15:54:00,
2013-06-01 12:03:00,80.0,68.0,29.98,SW,235,7.0,17.0,68,0.00,,,0.00,,2013-06-01 16:03:00,
2013-06-01 12:12:00,80.0,68.0,29.98,SW,235,7.0,17.0,68,0.00,,,0.00,,2013-06-01 16:12:00,
2013-06-01 12:23:00,82.0,69.0,29.98,SW,229,8.0,15.0,66,0.00,,,0.00,,2013-06-01 16:23:00,
2013-06-01 12:33:00,82.0,69.0,29.98,SW,229,8.0,15.0,66,0.00,,,0.00,,2013-06-01 16:33:00,
2013-06-01 12:42:00,81.0,69.0,29.97,WSW,243,8.0,20.0,67,0.00,,,0.00,,2013-06-01 16:42:00,
2013-06-01 12:52:00,81.0,69.0,29.97,WSW,243,8.0,20.0,67,0.00,,,0.00,,2013-06-01 16:52:00,
2013-06-01 13:02:00,81.0,69.0,29.98,WSW,242,12.0,20.0,66,0.00,,,0.00,,2013-06-01 17:02:00,
2013-06-01 13:12:00,81.0,69.0,29.98,WSW,242,12.0,20.0,66,0.00,,,0.00,,2013-06-01 17:12:00,
2013-06-01 13:22:00,82.0,69.0,29.97,SW,234,12.0,20.0,65,0.00,,,0.00,,2013-06-01 17:22:00,
2013-06-01 13:32:00,82.0,69.0,29.97,SW,234,12.0,20.0,65,0.00,,,0.00,,2013-06-01 17:32:00,
2013-06-01 13:41:00,81.0,67.0,29.96,SSW,204,10.0,17.0,63,0.00,,,0.00,,2013-06-01 17:41:00,
2013-06-01 13:42:00,82.0,69.0,29.97,SW,234,12.0,20.0,65,0.00,,,0.00,,2013-06-01 17:42:00,
2013-06-01 13:52:00,82.0,68.0,29.96,SW,226,11.0,21.0,62,0.00,,,0.00,,2013-06-01 17:52:00,
2013-06-01 14:02:00,81.0,67.0,29.96,SSW,204,10.0,17.0,63,0.00,,,0.00,,2013-06-01 18:02:00,
2013-06-01 14:12:00,81.0,67.0,29.96,SSW,204,10.0,17.0,63,0.00,,,0.00,,2013-06-01 18:12:00,
2013-06-01 14:22:00,81.0,67.0,29.96,SSW,204,10.0,17.0,63,0.00,,,0.00,,2013-06-01 18:22:00,
2013-06-01 14:32:00,81.0,67.0,29.96,SSW,204,10.0,17.0,63,0.00,,,0.00,,2013-06-01 18:32:00,
2013-06-01 14:52:00,80.0,67.0,29.95,SW,222,7.0,18.0,65,0.00,,,0.00,,2013-06-01 18:52:00,
2013-06-01 15:02:00,80.0,67.0,29.95,SW,222,7.0,18.0,65,0.00,,,0.00,,2013-06-01 19:02:00,
2013-06-01 15:12:00,79.0,66.0,29.95,SW,223,8.0,18.0,65,0.00,,,0.00,,2013-06-01 19:12:00,
2013-06-01 15:21:00,79.0,66.0,29.95,SW,223,8.0,18.0,65,0.00,,,0.00,,2013-06-01 19:21:00,
2013-06-01 15:32:00,78.0,67.0,29.94,SSW,213,7.0,16.0,68,0.00,,,0.00,,2013-06-01 19:32:00,
2013-06-01 15:42:00,78.0,67.0,29.94,SSW,213,7.0,16.0,68,0.00,,,0.00,,2013-06-01 19:42:00,
2013-06-01 15:52:00,79.0,67.0,29.94,SW,236,9.0,17.0,66,0.00,,,0.00,,2013-06-01 19:52:00,
2013-06-01 16:02:00,79.0,67.0,29.94,SW,234,10.0,25.0,66,0.00,,,0.00,,2013-06-01 20:02:00,
2013-06-01 16:12:00,79.0,67.0,29.94,SW,234,10.0,25.0,66,0.00,,,0.00,,2013-06-01 20:12:00,
2013-06-01 16:21:00,79.0,68.0,29.92,SW,216,12.0,22.0,68,0.00,,,0.00,,2013-06-01 20:21:00,
2013-06-01 16:32:00,78.0,67.0,29.93,SW,227,9.0,21.0,68,0.00,,,0.00,,2013-06-01 20:32:00,
2013-06-01 16:42:00,77.0,66.0,29.93,SW,229,8.0,20.0,69,0.00,,,0.00,,2013-06-01 20:42:00,
2013-06-01 16:52:00,77.0,66.0,29.93,SW,229,8.0,20.0,69,0.00,,,0.00,,2013-06-01 20:52:00,
2013-06-01 17:01:00,77.0,66.0,29.93,SW,226,10.0,17.0,70,0.00,,,0.00,,2013-06-01 21:01:00,
2013-06-01 17:11:00,76.0,66.0,29.93,SW,222,7.0,20.0,71,0.00,,,0.00,,2013-06-01 21:11:00,
2013-06-01 17:22:00,76.0,66.0,29.93,SW,222,7.0,20.0,71,0.00,,,0.00,,2013-06-01 21:22:00,
2013-06-01 17:33:00,76.0,66.0,29.92,SW,228,7.0,19.0,71,0.00,,,0.00,,2013-06-01 21:33:00,
2013-06-01 17:43:00,76.0,66.0,29.92,SW,228,7.0,19.0,71,0.00,,,0.00,,2013-06-01 21:43:00,
2013-06-01 17:53:00,75.0,66.0,29.93,SW,224,5.0,16.0,73,0.00,,,0.00,,2013-06-01 21:53:00,
2013-06-01 18:03:00,76.0,66.0,29.93,WSW,239,10.0,22.0,72,0.00,,,0.00,,2013-06-01 22:03:00,
2013-06-01 18:12:00,75.0,66.0,29.93,SW,220,6.0,19.0,73,0.00,,,0.00,,2013-06-01 22:12:00,
2013-06-01 18:23:00,75.0,66.0,29.93,SW,220,6.0,19.0,73,0.00,,,0.00,,2013-06-01 22:23:00,
2013-06-01 18:33:00,75.0,66.0,29.93,SW,220,6.0,19.0,73,0.00,,,0.00,,2013-06-01 22:33:00,
2013-06-01 18:42:00,74.0,66.0,29.92,SW,218,11.0,22.0,76,0.00,,,0.00,,2013-06-01 22:42:00,
2013-06-01 18:53:00,74.0,66.0,29.92,SW,218,11.0,22.0,76,0.00,,,0.00,,2013-06-01 22:53:00,
2013-06-01 19:02:00,73.0,65.0,29.93,WSW,246,11.0,21.0,77,0.00,,,0.00,,2013-06-01 23:02:00,
2013-06-01 19:12:00,73.0,65.0,29.93,WSW,246,11.0,21.0,77,0.00,,,0.00,,2013-06-01 23:12:00,
2013-06-01 19:22:00,73.0,65.0,29.93,WSW,246,11.0,21.0,77,0.00,,,0.00,,2013-06-01 23:22:00,
2013-06-01 19:32:00,71.0,65.0,29.92,SW,233,11.0,18.0,81,0.00,,,0.00,,2013-06-01 23:32:00,
2013-06-01 19:42:00,71.0,65.0,29.92,SW,233,11.0,18.0,81,0.00,,,0.00,,2013-06-01 23:42:00,
2013-06-01 19:52:00,69.0,63.0,29.92,SSW,213,6.0,14.0,82,0.00,,,0.00,,2013-06-01 23:52:00,
2013-06-01 20:02:00,68.0,63.0,29.92,SW,217,8.0,17.0,83,0.00,,,0.00,,2013-06-02 00:02:00,
2013-06-01 20:11:00,68.0,63.0,29.92,SW,217,8.0,17.0,83,0.00,,,0.00,,2013-06-02 00:11:00,
2013-06-01 20:22:00,67.0,63.0,29.92,SW,233,8.0,16.0,86,0.00,,,0.00,,2013-06-02 00:22:00,
2013-06-01 20:32:00,66.0,62.0,29.92,SW,215,5.0,14.0,87,0.00,,,0.00,,2013-06-02 00:32:00,
2013-06-01 20:42:00,66.0,62.0,29.92,SW,215,5.0,14.0,87,0.00,,,0.00,,2013-06-02 00:42:00,
2013-06-01 20:52:00,66.0,63.0,29.93,SW,231,4.0,13.0,89,0.00,,,0.00,,2013-06-02 00:52:00,
2013-06-01 21:01:00,66.0,63.0,29.93,SW,231,4.0,13.0,89,0.00,,,0.00,,2013-06-02 01:01:00,
2013-06-01 21:11:00,66.0,63.0,29.93,SW,231,4.0,13.0,89,0.00,,,0.00,,2013-06-02 01:11:00,
2013-06-01 21:21:00,66.0,63.0,29.93,SW,234,7.0,13.0,91,0.00,,,0.00,,2013-06-02 01:21:00,
2013-06-01 21:32:00,66.0,64.0,29.93,SW,220,6.0,17.0,92,0.00,,,0.00,,2013-06-02 01:32:00,
2013-06-01 21:42:00,66.0,64.0,29.93,SW,220,6.0,17.0,92,0.00,,,0.00,,2013-06-02 01:42:00,
2013-06-01 21:52:00,66.0,64.0,29.94,SW,225,11.0,21.0,92,0.00,,,0.00,,2013-06-02 01:52:00,
2013-06-01 22:01:00,66.0,64.0,29.94,SW,225,11.0,21.0,92,0.00,,,0.00,,2013-06-02 02:01:00,
2013-06-01 22:12:00,66.0,64.0,29.94,SW,225,11.0,21.0,92,0.00,,,0.00,,2013-06-02 02:12:00,
2013-06-01 22:21:00,66.0,64.0,29.94,SW,235,10.0,19.0,92,0.00,,,0.00,,2013-06-02 02:21:00,
2013-06-01 22:32:00,66.0,64.0,29.94,SW,229,9.0,18.0,93,0.00,,,0.00,,2013-06-02 02:32:00,
2013-06-01 22:42:00,66.0,64.0,29.94,SW,229,9.0,18.0,93,0.00,,,0.00,,2013-06-02 02:42:00,
2013-06-01 22:52:00,66.0,63.0,29.94,SW,234,11.0,23.0,91,0.00,,,0.00,,2013-06-02 02:52:00,
2013-06-01 23:02:00,66.0,63.0,29.94,SW,235,12.0,23.0,91,0.00,,,0.00,,2013-06-02 03:02:00,
2013-06-01 23:11:00,66.0,63.0,29.94,SW,235,12.0,23.0,91,0.00,,,0.00,,2013-06-02 03:11:00,
2013-06-01 23:21:00,66.0,63.0,29.94,SW,224,11.0,19.0,91,0.00,,,0.00,,2013-06-02 03:21:00,
2013-06-01 23:33:00,66.0,63.0,29.94,SW,224,11.0,19.0,91,0.00,,,0.00,,2013-06-02 03:33:00,
2013-06-01 23:43:00,66.0,63.0,29.94,SW,224,11.0,19.0,91,0.00,,,0.00,,2013-06-02 03:43:00,
2013-06-01 23:53:00,66.0,63.0,29.94,SW,224,11.0,19.0,91,0.00,,,0.00,,2013-06-02 03:53:00,